Location: Central Coast
(33.3208°S, 151.2336°E)
Time: 00:37:53
(UTC+11:00)

Vanguard 1 Rocket - All Passes

Search period start: 24 January 2018 00:00
Search period end: 03 February 2018 00:00
Orbit: 656 x 4221 km, 34.3° (Epoch: 22 January)

Date Brightness Start Highest point End Pass type
(mag) Time Alt. Az. Time Alt. Az. Time Alt. Az.
24 Jan - 00:46:55 10° WSW 01:08:35 66° NNW 01:33:44 10° NE visible
24 Jan - 03:19:27 10° W 03:39:37 31° NW 03:58:05 10° N visible
24 Jan - 16:21:30 10° N 16:26:47 21° NE 16:34:36 10° E daylight
24 Jan - 18:42:27 10° WNW 18:51:29 71° NNE 19:09:51 10° ESE daylight
24 Jan - 21:07:21 10° W 21:20:53 87° S 21:45:47 10° E visible
24 Jan - 23:34:14 10° WSW 23:53:26 78° NNW 00:20:00 10° ENE visible
25 Jan - 02:03:58 10° WSW 02:25:40 45° NW 02:47:50 10° NNE visible
25 Jan - 04:46:01 10° WNW 04:54:58 13° NW 05:03:23 10° NNW visible
25 Jan - 17:32:36 10° NW 17:39:57 49° NE 17:53:59 10° ESE daylight
25 Jan - 19:56:17 10° W 20:07:14 90° S 20:29:08 10° E visible
25 Jan - 22:22:13 10° W 22:38:28 87° NNW 23:04:55 10° ENE visible
26 Jan - 00:50:12 10° WSW 01:11:05 59° NNW 01:35:54 10° NE visible
26 Jan - 03:23:58 10° W 03:41:45 25° NW 03:58:39 10° N visible
26 Jan - 16:23:39 10° N 16:29:19 27° NE 16:38:26 10° E daylight
26 Jan - 18:45:42 10° WNW 18:54:33 79° NNE 19:12:45 10° ESE daylight
26 Jan - 21:10:45 10° W 21:24:05 87° S 21:48:45 10° E visible
26 Jan - 23:37:30 10° WSW 23:56:12 71° NNW 00:22:28 10° NE visible
27 Jan - 02:07:38 10° W 02:27:55 37° NW 02:49:13 10° NNE visible
27 Jan - 15:17:31 10° NE 15:19:13 11° NE 15:21:07 10° ENE daylight
27 Jan - 17:35:38 10° NW 17:42:50 59° NNE 17:57:01 10° ESE daylight
27 Jan - 19:59:42 10° W 20:10:28 87° S 20:32:07 10° E visible
27 Jan - 22:25:34 10° WSW 22:41:28 82° NNW 23:07:38 10° ENE visible
28 Jan - 00:53:34 10° WSW 01:13:33 51° NW 01:37:45 10° NNE visible
28 Jan - 03:29:34 10° W 03:43:59 18° NW 03:58:08 10° NNW visible
28 Jan - 16:26:14 10° NNW 16:32:00 36° NE 16:41:54 10° E daylight
28 Jan - 18:49:03 10° WNW 18:57:44 86° NNE 19:15:42 10° E daylight
28 Jan - 21:14:09 10° W 21:27:15 90° NNW 21:51:40 10° ENE visible
28 Jan - 23:40:49 10° WSW 23:58:54 64° NNW 00:24:41 10° NE visible
29 Jan - 02:11:44 10° W 02:30:13 30° NW 02:50:04 10° N visible
29 Jan - 15:18:09 10° N 15:21:48 16° NE 15:26:36 10° E daylight
29 Jan - 17:38:49 10° WNW 17:45:53 70° NNE 18:00:02 10° ESE daylight
29 Jan - 20:03:09 10° W 20:13:45 86° S 20:35:06 10° E visible
29 Jan - 22:28:54 10° WSW 22:44:24 76° NNW 23:10:10 10° ENE visible
30 Jan - 00:57:10 10° W 01:16:01 43° NW 01:39:13 10° NNE visible
30 Jan - 03:37:44 10° WNW 03:46:26 13° NW 03:55:08 10° NNW visible
30 Jan - 16:29:06 10° NW 16:34:51 45° NE 16:45:10 10° ESE daylight
30 Jan - 18:52:29 10° W 19:01:02 89° S 19:18:41 10° E daylight
30 Jan - 21:17:32 10° W 21:30:23 86° NNW 21:54:28 10° ENE visible
30 Jan - 23:44:13 10° WSW 00:01:36 55° NNW 00:26:35 10° NE visible
31 Jan - 02:16:31 10° W 02:32:38 23° NW 02:50:10 10° N visible
31 Jan - 15:20:11 10° N 15:24:29 23° NE 15:30:41 10° E daylight
31 Jan - 17:42:08 10° WNW 17:49:04 80° NNE 18:03:02 10° ESE daylight
31 Jan - 20:06:36 10° W 20:17:01 88° S 20:38:04 10° E visible
31 Jan - 22:32:15 10° WSW 22:47:18 68° NNW 23:12:27 10° NE visible
01 Feb - 01:01:03 10° W 01:18:32 35° NW 01:40:14 10° NNE visible
01 Feb - 16:32:10 10° NW 16:37:52 57° NNE 16:48:19 10° ESE daylight
01 Feb - 18:55:57 10° W 19:04:21 86° S 19:21:42 10° E daylight
01 Feb - 21:20:56 10° WSW 21:33:28 79° NNW 21:57:06 10° ENE visible
01 Feb - 23:47:45 10° W 00:04:18 47° NNW 00:28:08 10° NNE visible
02 Feb - 02:22:32 10° WNW 02:35:13 17° NW 02:48:59 10° NNW visible
02 Feb - 15:22:45 10° NNW 15:27:20 31° NE 15:34:19 10° E daylight
02 Feb - 17:45:33 10° WNW 17:52:21 88° N 18:06:04 10° E daylight
02 Feb - 20:10:01 10° W 20:20:15 89° NNW 20:40:57 10° ENE visible
02 Feb - 22:35:40 10° WSW 22:50:12 59° NNW 23:14:28 10° NE visible
